Regional Weather Roundup
Issued by NWS

Home | Current Version | Previous Version | Graphics & Text | Print | Product List | Glossary On
Versions: 1 2 3 4 5 6 7 8 9 10 11 12 13 14 15 16 17 18 19 20 21 22 23 24 25 26 27 28 29 30 31 32 33 34 35 36 37 38 39 40 41 42 43 44 45 46 47 48 49 50
668
ASUS44 KMEG 271510
RWRTN
TENNESSEE HOURLY STATE WEATHER ROUNDUP
NATIONAL WEATHER SERVICE MEMPHIS TN
1000 AM CDT WED JUL 27 2016

TNZ002-004-019-021-049-052-054-088>092-271600-
WEST TENNESSEE

CITY           SKY/WX    TMP DP  RH WIND       PRES   REMARKS
MEMPHIS INTL   MOSUNNY   88  75  65 S6        29.96S HX  97
NWS MEMPHIS      N/A     86 N/A N/A MISG        N/A
JACKSON        PTSUNNY   82  77  84 VRB5      29.99S HX  90
DYERSBURG      SUNNY     82  75  78 MISG      29.98R
UNION CITY     SUNNY     84  75  74 CALM      29.98R HX  92
PARIS          SUNNY     82  73  74 S5        30.00S
LEXINGTON      CLOUDY    81  73  78 S6        30.00S
$$

TNZ008-025-027-028-033-062-065-066-271600-
NORTH MIDDLE TENNESSEE

CITY           SKY/WX    TMP DP  RH WIND       PRES   REMARKS
NASHVILLE      PTSUNNY   85  72  65 VRB3      30.03S HX  91
CLARKSVILLE    SUNNY     83  74  74 VRB3      30.00F
SMYRNA         MOSUNNY   87  73  62 CALM      30.03S HX  94
COOKEVILLE     MOSUNNY   88  75  66 SW6       30.05S HX  97
CROSSVILLE     SUNNY     81  71  71 CALM      30.11R
$$

TNZ061-075-076-078-094-096-097-271600-
SOUTH MIDDLE TENNESSEE

CITY           SKY/WX    TMP DP  RH WIND       PRES   REMARKS
FAYETTEVILLE   CLOUDY    81  72  74 S12       30.05S
TULLAHOMA      SUNNY     82  72  69 S7        30.06S
WINCHESTER     MOSUNNY   86  73  66 S6        30.05S HX  93
MCMINNVILLE    MOSUNNY   88  75  66 CALM      30.06R HX  97
COLUMBIA       SUNNY     88  82  84 S7        30.01R HX 108
SHELBYVILLE    MOSUNNY   86  75  70 S6        30.05R HX  95
$$

TNZ017-018-042-046-047-271600-
NORTHEAST TENNESSEE

CITY           SKY/WX    TMP DP  RH WIND       PRES   REMARKS
TRI CITIES     MOSUNNY   83  73  72 CALM      30.09F
ELIZABETHTON   MOSUNNY   84  72  65 CALM      30.09S
$$

TNZ012-013-036-069-073-074-271600-
CENTRAL EAST TENNESSEE

CITY           SKY/WX    TMP DP  RH WIND       PRES   REMARKS
KNOXVILLE      MOSUNNY   85  72  65 SW6       30.05S HX  91
OAK RIDGE      MOSUNNY   86  72  62 NW3       30.06S HX  92
GATLINBURG       N/A     88  70  55 VRB3      30.05S HX  92
MORRISTOWN     SUNNY     84  72  65 W8        30.06F
$$

TNZ083-085-099-271600-
SOUTHEAST TENNESSEE

CITY           SKY/WX    TMP DP  RH WIND       PRES   REMARKS
CHATTANOOGA    PTSUNNY   86  72  62 S9        30.04F HX  92
$$

SKY/WX REPORTED AS FAIR MEANS FEW OR NO CLOUDS BELOW
12 THOUSAND FEET.





USA.gov is the U.S. government's official web portal to all federal, state and local government web resources and services.